DL8FX-6 Weather Reports


Display with metric or nautical units.
time (UTC)temp
F
wind
direction
speed
MPH
gust
MPH
rain 1hr
in
rain 24hr
in
rain mn
in
humidity
%
barometer
mb
20260505014022 57 0.0 0.0 0.00 0.00 0.00 81 1009.2
20260505013018 57 0.0 2.0 0.00 0.00 0.00 82 1009.1
20260505012114 57 0.0 0.0 0.00 0.00 0.00 82 1008.8
20260505011111 57 0.0 0.0 0.00 0.00 0.00 82 1008.8
20260505010107 57 0.0 0.0 0.00 0.00 0.00 82 1008.8
20260505005123 56 0.0 0.0 0.00 0.00 0.00 81 1008.9
20260505004059 56 0.0 0.0 0.00 0.00 0.00 81 1009.1
20260505003056 57 0.0 0.0 0.00 0.00 0.00 82 1009.1
20260505002052 57 0.0 0.0 0.00 0.00 0.00 81 1009.2
20260505001048 57 0.0 0.0 0.00 0.00 0.00 81 1009.3
20260505000044 57 0.0 0.0 0.00 0.00 0.00 82 1009.4
20260504235040 57 0.0 0.0 0.00 0.00 0.00 83 1009.3
20260504234036 56 0.0 0.0 0.00 0.00 0.00 83 1009.2
20260504233032 56 0.0 0.0 0.00 0.00 0.00 83 1009.4
20260504232048 56 0.0 0.0 0.00 0.00 0.00 84 1009.5
20260504231024 55 0.0 0.0 0.00 0.00 0.00 83 1009.6
20260504230020 55 0.0 0.0 0.00 0.00 0.00 83 1009.7
20260504225036 55 0.0 0.0 0.00 0.00 0.00 83 1009.7
20260504224112 55 0.0 0.0 0.00 0.00 0.00 82 1009.8
20260504223128 56 0.0 0.0 0.00 0.00 0.00 81 1009.7
20260504222104 56 0.0 0.0 0.00 0.00 0.00 81 1009.8
20260504221100 56 0.0 0.0 0.00 0.00 0.00 80 1009.8
20260504220057 57 0.0 0.0 0.00 0.00 0.00 80 1009.9
20260504215053 57 0.0 0.0 0.00 0.00 0.00 78 1009.9
20260504214048 58 0.0 0.0 0.00 0.00 0.00 78 1010.0
20260504213045 58 0.0 0.0 0.00 0.00 0.00 76 1010.0
20260504212121 58 0.0 0.0 0.00 0.00 0.00 77 1010.1
20260504211037 58 0.0 0.0 0.00 0.00 0.00 76 1010.1
20260504210033 59 0.0 0.0 0.00 0.00 0.00 76 1010.0
20260504205050 59 0.0 0.0 0.00 0.00 0.00 75 1010.0
20260504204045 59 0.0 0.0 0.00 0.00 0.00 74 1010.1
20260504203022 60 0.0 0.0 0.00 0.00 0.00 75 1010.1
20260504202018 60 0.0 0.0 0.00 0.00 0.00 74 1010.0
20260504201114 60 0.0 0.0 0.00 0.00 0.00 73 1009.9
20260504200110 60 0.0 0.0 0.00 0.00 0.00 73 1010.0
20260504195107 61 0.0 0.0 0.00 0.00 0.00 73 1010.0
20260504194102 61 0.0 0.0 0.00 0.00 0.00 71 1010.0
20260504193119 62 0.0 0.0 0.00 0.00 0.00 71 1009.8
20260504192114 63 0.0 0.0 0.00 0.00 0.00 71 1009.8
20260504191050 64 0.0 0.0 0.00 0.00 0.00 68 1009.9
20260504190106 65 0.0 0.0 0.00 0.00 0.00 65 1009.8
20260504185042 65 0.0 0.0 0.00 0.00 0.00 62 1009.8
20260504184038 66 0.0 0.0 0.00 0.00 0.00 61 1009.8
20260504183035 66 0.0 0.0 0.00 0.00 0.00 61 1009.7
20260504182031 67 0.0 0.0 0.00 0.00 0.00 61 1009.6
20260504181027 67 0.0 0.0 0.00 0.00 0.00 60 1009.5
20260504180023 68 0.0 0.0 0.00 0.00 0.00 58 1009.6
20260504175019 69 0.0 0.0 0.00 0.00 0.00 56 1009.6
20260504174115 70 0.0 0.0 0.00 0.00 0.00 53 1009.5
20260504173111 71 0.0 0.0 0.00 0.00 0.00 52 1009.5
20260504172107 73 0.0 0.0 0.00 0.00 0.00 50 1009.4
20260504171103 72 0.0 0.0 0.00 0.00 0.00 52 1009.4
20260504151015 75 0.0 0.0 0.00 0.00 0.00 48 1009.5
20260504150112 72 0.0 0.0 0.00 0.00 0.00 52 1009.6
20260504141052 75 0.0 2.0 0.00 0.00 0.00 43 1009.9
20260504100108 73 309 1.0 8.0 0.00 0.00 0.00 52 1010.6
20260504090123 72 180 1.0 8.0 0.00 0.00 0.00 55 1010.6
20260504081024 70 270 3.0 6.0 0.00 0.00 0.00 59 1010.5
20260504080201 70 219 1.0 9.0 0.00 0.00 0.00 59 1010.5
20260504050109 60 0.0 0.0 0.00 0.00 0.00 76 1009.4
20260504045105 58 0.0 0.0 0.00 0.00 0.00 75 1009.4
20260504044102 58 0.0 0.0 0.00 0.00 0.00 75 1009.3
20260504043058 58 0.0 0.0 0.00 0.00 0.00 74 1009.1
20260504042053 58 0.0 0.0 0.00 0.00 0.00 74 1009.0
20260504041050 58 0.0 0.0 0.00 0.00 0.00 74 1009.0
20260504040045 58 0.0 0.0 0.00 0.00 0.00 73 1008.9
20260504035041 58 0.0 0.0 0.00 0.00 0.00 72 1008.8
20260504034058 59 0.0 0.0 0.00 0.00 0.00 70 1009.0
20260504033034 60 0.0 0.0 0.00 0.00 0.00 70 1009.0
20260504032030 60 0.0 0.0 0.00 0.00 0.00 69 1009.2
20260504031025 60 0.0 0.0 0.00 0.00 0.00 70 1009.3
20260504030022 60 0.0 0.0 0.00 0.00 0.00 70 1009.2
20260504025018 60 0.0 0.0 0.00 0.00 0.00 68 1009.2
20260504024114 59 0.0 0.0 0.00 0.00 0.00 67 1009.2
20260504023110 59 0.0 0.0 0.00 0.00 0.00 66 1009.3
20260504022106 59 0.0 0.0 0.00 0.00 0.00 67 1009.2
20260504021102 59 0.0 0.0 0.00 0.00 0.00 65 1009.0
20260504020059 60 0.0 0.0 0.00 0.00 0.00 64 1009.0
20260504015054 60 0.0 0.0 0.00 0.00 0.00 63 1009.0